Hourly Data Report for May 18, 2017

FISHER BRANCH (AUT)
MANITOBA

51°05'00.100" N
97°33'16.200" W
253.00 m
50309J6
71442
WSZ

Download Data

Hourly Data (May 2017)
Hourly Data Report for May 18, 2017
TIME
LST
Temp Definition
°C
Dew Point Definition
°C
Rel Hum Definition
%
Precip. Amount Definition
mm

Wind Dir Definition
10's deg

Wind Spd Definition
km/h
Visibility Definition
km
Stn Press Definition
kPa
Hmdx Definition


Wind Chill Definition


Weather Definition


00:00 1.0 -2.5 77 0.0 36 10   98.92     LegendNANA
01:00 -0.2 -3.2 80 0.0 35 10   98.97   -4 LegendNANA
02:00 -0.1 -4.5 72 0.0 1 8   99.05   -3 LegendNANA
03:00 0.1 -5.1 68 0.0 1 10   99.06     LegendNANA
04:00 -1.0 -5.7 70 0.0 1 7   99.13   -4 LegendNANA
05:00 -2.0 -4.8 81 0.0 34 9   99.18   -5 LegendNANA
06:00 -0.2 -4.4 73 0.0 35 10   99.27   -4 LegendNANA
07:00 2.6 -6.4 51 0.0 3 15   99.33     LegendNANA
08:00 4.5 -6.6 44 0.0 3 19   99.36     LegendNANA
09:00 6.2 -5.1 44 0.0 2 16   99.34     LegendNANA
10:00 8.1 -4.9 39 0.0 1 15   99.37     LegendNANA
11:00 8.4 -7.6 31 0.0 2 16   99.39     LegendNANA
12:00 10.1 -8.9 25 0.0 2 14   99.41     LegendNANA
13:00 10.7 -6.8 29 0.0 34 14   99.39     LegendNANA
14:00 12.3 -5.9 28 0.0 34 16   99.38     LegendNANA
15:00 12.8 -6.2 26 0.0 36 16   99.40     LegendNANA
16:00 12.5 -7.1 25 0.0 35 15   99.40     LegendNANA
17:00 13.2 -5.7 26 0.0 1 13   99.42     LegendNANA
18:00 12.0 -8.8 22 0.0 35 15   99.42     LegendNANA
19:00 10.9 -12.1 19 0.0 34 14   99.45     LegendNANA
20:00 9.0 -11.0 23 0.0 35 8   99.45     LegendNANA
21:00 4.4 -10.5 33 0.0 31 2   99.50     LegendNANA
22:00 5.0 -9.7 34 0.0 34 8   99.50     LegendNANA
23:00 1.3 -8.1 50 0.0 30 6   99.49     LegendNANA

Notes on Data Quality.

Legend

  • E = Estimated
  • M = Missing
  • NA = Not Available*
  • [empty] = Indicates an unobserved value
Date modified: